GEFSGL_con_probscp_216.txt.gz
Probability
10 10 9 8 9 10 10 9 8 7 6 6 5 3 3 3 3 2 2 2 2 2 2 1 0 0 0 0 0 0 0 0 0 0 0 0 0 0 0 0 0 0 0
10 10 9 9 9 10 10 9 7 6 6 5 4 2 2 3 3 1 1 1 1 1 1 0 0 0 0 0 0 0 0 0 0 0 0 0 0 0 0 0 0 0 0
11 11 10 9 9 10 8 7 5 4 4 4 3 1 1 2 2 1 0 0 0 0 0 0 0 0 1 1 1 1 2 1 1 0 0 0 0 0 0 0 0 0 0
12 11 10 8 8 7 5 4 4 3 3 3 3 2 1 1 1 0 0 0 0 0 0 0 0 0 1 2 2 3 3 3 2 1 0 0 0 0 0 0 0 0 0
12 11 9 6 5 4 3 3 4 3 3 3 3 2 0 0 0 0 0 0 1 1 0 0 0 0 1 1 2 2 3 3 3 1 0 0 0 0 0 0 0 0 0
13 12 9 6 5 5 4 4 5 4 3 3 3 2 1 0 0 0 0 1 2 2 1 1 1 1 1 1 1 1 1 2 2 1 0 0 0 0 0 0 0 0 0
14 13 11 10 9 7 6 6 6 6 4 4 4 4 3 2 1 1 1 2 3 3 3 2 2 2 2 2 1 1 0 1 1 1 0 0 0 0 0 0 0 0 0
15 14 13 13 12 10 8 8 8 7 6 6 6 6 5 4 3 2 3 3 3 3 3 3 3 3 3 3 3 2 1 0 0 0 0 0 0 0 0 0 0 0 0
17 16 14 13 12 10 8 8 9 8 7 6 6 6 6 6 4 3 3 3 3 3 3 3 3 3 3 3 3 3 2 1 0 0 0 0 0 0 0 0 0 0 0
20 18 15 12 10 8 8 8 8 7 7 6 6 6 6 6 4 3 3 3 3 3 3 3 3 3 3 3 3 3 3 1 0 0 0 0 0 0 0 0 0 0 0
21 19 15 11 8 7 8 9 8 7 6 6 6 6 6 6 4 3 3 3 3 3 3 3 3 3 3 3 3 3 2 1 0 0 0 0 0 0 0 0 0 0 0
20 18 14 10 8 8 9 10 9 7 7 6 6 6 6 5 4 3 3 3 3 3 3 3 3 3 3 1 1 2 1 1 0 0 0 0 0 0 0 0 0 0 0
18 16 12 11 10 10 10 11 10 8 7 6 6 6 6 4 3 3 3 3 3 3 3 3 3 3 2 1 1 1 0 0 0 0 0 0 0 0 0 0 0 0 0
17 15 13 12 12 11 10 10 10 9 8 7 6 6 6 4 3 3 3 3 3 3 3 3 3 2 2 2 2 1 0 0 0 0 0 0 0 0 0 0 0 0 0
16 14 13 12 12 10 9 8 8 8 7 6 6 5 4 3 2 2 2 2 3 3 3 3 3 3 3 3 3 1 0 0 0 0 0 0 0 0 0 0 0 0 0
16 14 12 11 11 10 9 7 5 4 4 3 3 3 2 1 1 1 1 1 1 2 3 3 3 3 3 3 3 2 0 0 0 0 0 0 0 0 0 0 0 0 0
15 13 11 11 11 11 11 8 5 3 2 2 1 1 0 0 0 0 0 0 0 1 3 3 3 3 3 2 2 1 0 0 0 0 0 0 0 0 0 0 0 0 0
15 14 12 12 11 10 11 9 6 4 3 2 2 1 0 0 0 0 0 0 1 1 2 2 2 2 1 1 1 0 0 0 0 0 0 0 0 0 0 0 0 0 0
16 14 13 11 9 8 8 8 6 4 3 3 3 2 1 0 0 0 0 0 1 1 1 1 1 1 0 0 0 0 0 0 0 0 0 0 0 0 0 0 0 0 0
14 12 10 8 7 7 6 6 6 5 4 3 3 2 1 0 0 0 0 0 1 1 0 0 0 0 0 0 0 0 0 0 0 0 0 0 0 0 0 0 0 0 0
11 10 8 7 7 7 7 6 6 4 3 3 3 2 1 0 0 0 0 0 0 0 0 0 0 0 0 0 0 0 0 0 0 0 0 0 0 0 0 0 0 0 0
8 8 8 7 7 7 6 6 5 4 3 3 3 2 1 0 0 0 0 0 0 0 0 0 0 0 0 0 0 0 0 0 0 0 0 0 0 0 0 0 0 0 0
6 6 7 6 5 4 3 4 4 3 3 3 3 2 1 0 0 0 0 0 0 0 0 0 0 0 0 0 0 0 0 0 0 0 0 0 0 0 0 0 0 0 0
4 4 5 4 3 2 1 1 1 2 3 3 1 1 0 0 0 0 0 0 0 0 0 0 0 0 0 0 0 0 0 0 0 0 0 0 0 0 0 0 0 0 0
3 4 4 4 3 1 0 0 0 0 1 2 1 0 0 0 0 0 0 0 0 0 0 0 0 0 0 0 0 0 0 0 0 0 0 0 0 0 0 0 0 0 0
3 4 4 4 3 2 1 0 0 0 0 1 0 0 0 0 0 0 0 0 0 0 0 0 0 0 0 0 0 0 0 0 0 0 0 0 0 0 0 0 0 0 0

GEFSGL_con_probscp_222.txt.gz
Probability
9 9 11 12 13 11 10 10 12 13 11 9 7 7 8 9 9 7 4 3 4 5 5 5 5 6 7 6 5 6 6 5 2 0 0 1 2 2 2 2 3 4 6
9 10 12 14 15 14 12 12 12 12 10 8 7 6 6 6 5 4 3 3 3 4 4 4 4 5 5 5 5 5 6 5 3 1 1 2 3 3 3 2 2 3 4
11 12 15 17 17 16 15 14 13 12 9 7 6 5 4 3 2 2 3 3 3 3 3 3 3 3 3 3 4 5 6 5 4 3 3 3 3 3 3 3 2 2 2
17 18 20 20 19 17 16 15 14 13 10 8 6 5 4 3 3 3 3 3 3 3 2 2 2 1 1 2 3 6 6 5 5 4 4 5 4 3 3 3 3 2 2
23 23 23 23 20 17 16 16 15 13 11 9 8 6 6 5 4 3 3 4 4 3 2 2 1 1 1 1 3 5 6 5 6 6 6 6 5 4 3 3 3 3 2
28 27 25 23 20 18 16 15 14 13 13 11 9 8 6 5 4 3 4 5 5 5 4 3 3 2 2 2 3 3 4 4 5 6 6 6 5 5 4 3 3 2 2
31 29 26 22 19 17 16 14 13 13 14 14 11 9 8 6 4 3 4 6 6 6 6 5 4 4 3 3 3 2 3 3 4 5 5 4 4 4 3 3 3 2 1
35 33 29 25 21 18 15 14 14 15 15 14 13 12 10 7 5 4 4 5 6 6 6 6 5 4 4 3 3 3 3 3 3 4 4 3 3 3 3 3 3 3 2
39 36 32 29 25 20 15 14 14 14 14 14 14 14 11 8 6 3 3 5 6 6 6 6 5 4 3 3 3 3 3 3 3 3 3 3 3 3 3 3 3 3 3
39 36 33 30 28 23 17 14 13 12 11 12 13 14 11 9 6 3 3 5 6 6 6 6 4 3 3 3 3 3 3 3 3 3 3 3 3 3 2 3 3 3 3
39 37 34 31 28 24 21 18 15 12 11 12 14 13 11 9 6 3 3 5 6 6 6 5 4 3 3 3 3 3 3 3 3 3 3 3 3 3 3 3 3 3 3
39 38 36 32 26 23 23 21 18 14 12 12 14 12 10 8 5 3 2 3 5 6 6 4 3 3 3 3 3 3 3 3 3 3 4 3 3 3 3 3 3 3 3
36 36 34 29 24 22 22 22 20 17 13 12 12 11 9 8 6 3 2 2 3 5 5 4 3 3 3 3 2 3 3 3 4 4 5 4 3 3 3 3 3 3 3
31 32 29 24 20 20 21 21 20 18 15 12 11 11 10 9 8 5 3 3 3 4 4 3 3 3 3 3 3 4 4 4 5 5 6 5 4 3 3 3 1 1 2
26 27 25 21 18 18 19 19 18 16 13 11 11 10 10 9 7 5 3 3 2 2 2 3 3 3 3 4 5 5 6 5 5 5 5 5 4 3 3 2 1 0 1
25 24 23 20 18 17 18 17 14 11 7 6 6 6 7 6 4 2 1 1 1 1 1 1 3 3 3 3 4 5 6 6 5 4 4 5 4 3 3 1 0 0 0
27 24 21 18 16 15 16 17 13 8 4 3 2 2 3 3 1 0 0 0 0 1 1 1 3 3 3 3 3 4 5 6 4 3 4 5 5 4 2 1 0 0 0
29 23 18 16 13 12 14 16 14 10 8 6 2 0 0 0 0 0 0 0 1 2 2 3 3 3 3 3 3 3 4 5 4 3 3 4 4 3 2 1 0 0 0
26 21 16 14 13 12 12 13 14 13 12 10 5 1 0 0 0 0 0 1 2 3 3 3 3 3 3 3 3 3 3 4 3 3 3 3 2 2 2 1 0 0 0
20 16 13 14 14 12 11 12 13 14 13 11 6 2 0 1 1 0 0 2 3 3 3 3 3 3 4 3 3 3 3 3 3 3 2 1 1 1 1 0 0 0 0
17 13 10 12 14 12 11 12 14 14 12 9 6 3 1 1 1 0 0 1 2 1 1 3 3 4 4 4 3 3 3 3 3 2 1 0 0 0 0 0 0 0 0
17 13 11 12 13 11 9 11 13 11 9 8 8 4 1 1 1 1 1 2 2 1 1 3 3 3 4 3 3 3 3 3 3 2 1 0 0 0 0 0 0 0 0
17 14 13 13 13 9 9 10 11 10 9 9 9 5 2 2 3 3 3 3 3 2 3 3 3 3 3 3 3 3 3 3 3 3 2 0 0 0 0 0 0 0 0
17 14 13 13 12 9 9 10 10 9 9 9 9 7 5 5 5 5 4 4 4 4 4 3 3 3 3 2 2 2 2 2 2 2 1 0 0 0 0 0 0 0 0
16 13 12 12 11 10 9 9 9 9 9 10 9 8 7 6 6 6 5 5 4 4 5 4 3 3 1 1 1 1 1 1 1 1 0 0 0 0 0 0 0 0 0
14 12 12 11 11 9 8 8 8 8 9 10 10 9 8 7 6 6 5 4 3 3 5 4 3 2 1 0 0 0 0 0 0 0 0 0 0 0 0 0 0 0 0

GEFSGL_con_probscp_228.txt.gz
Probability
31 29 27 28 26 23 20 19 20 20 17 14 12 11 10 9 8 6 5 5 4 3 3 3 4 5 6 5 3 3 4 3 2 2 4 5 4 3 4 4 3 2 1
33 32 31 30 29 26 23 23 25 25 21 16 13 11 9 8 7 5 4 4 3 3 3 3 3 4 5 5 3 3 3 2 1 1 3 5 4 3 3 2 2 1 1
39 38 36 34 33 30 27 28 29 28 24 18 14 12 9 8 7 6 4 4 4 3 2 2 1 2 3 4 3 3 2 1 1 1 3 5 5 3 3 2 1 1 1
46 46 43 40 38 34 32 30 28 26 22 19 15 12 10 9 7 6 5 5 4 3 2 2 2 1 1 2 3 3 3 3 3 3 4 5 5 4 3 3 3 2 1
53 53 51 47 43 39 34 29 25 23 21 19 16 13 11 9 7 6 5 5 4 4 3 3 3 2 1 2 3 4 4 4 5 5 5 6 5 4 3 3 3 3 3
58 57 55 51 45 40 34 27 24 23 22 21 19 16 12 9 6 5 5 5 5 6 5 4 3 2 1 1 2 3 4 4 5 6 6 5 4 3 3 3 3 3 3
59 57 55 52 46 39 33 28 26 26 26 26 25 20 14 9 6 6 6 6 7 7 6 6 5 3 2 2 3 3 3 4 4 5 5 4 3 3 3 3 3 3 3
58 57 55 53 47 39 33 30 29 28 30 30 28 23 16 9 6 6 7 7 8 7 7 6 6 5 4 4 4 3 4 4 4 4 4 3 3 3 3 3 3 3 3
58 57 55 51 47 41 35 32 32 31 31 31 27 23 18 11 6 5 6 8 9 9 8 7 7 6 4 4 4 4 4 4 3 3 3 3 3 3 3 3 3 3 3
56 56 53 50 47 43 39 36 36 35 32 28 25 22 19 13 7 4 5 8 10 11 10 8 7 6 4 3 4 5 4 3 3 3 3 3 3 3 4 3 3 3 3
53 53 53 50 47 44 41 39 38 37 32 27 25 22 19 13 8 4 5 7 10 11 10 8 6 5 3 2 3 5 4 3 3 3 3 3 3 4 4 4 3 3 3
51 52 51 48 45 43 41 40 38 36 32 28 25 23 19 13 8 5 4 5 7 8 8 7 5 3 1 1 2 3 3 2 3 3 3 3 3 4 5 4 3 3 3
50 51 48 44 43 43 41 38 36 33 30 27 25 23 20 16 11 7 5 3 3 5 6 6 5 2 1 1 2 2 1 1 2 3 3 3 3 4 4 4 3 3 3
47 48 45 40 39 41 39 36 33 29 26 25 24 23 22 20 15 9 7 5 4 4 5 4 3 2 1 1 2 2 2 1 2 3 3 3 3 3 4 3 3 3 3
44 45 43 38 35 36 34 29 26 23 20 19 20 20 20 18 13 7 5 6 5 4 3 2 2 1 1 2 2 3 3 3 3 3 3 3 3 3 3 3 3 3 3
41 43 42 37 33 30 26 21 17 14 11 9 10 12 12 10 7 3 2 3 3 2 1 1 1 1 1 2 2 3 3 3 3 3 2 2 3 3 3 3 3 3 3
39 40 40 37 32 27 22 19 15 12 8 5 3 3 4 3 2 0 0 0 0 0 0 1 2 2 2 2 2 3 4 4 4 3 3 3 3 3 3 3 3 3 3
36 37 38 37 32 27 23 21 19 17 15 10 5 2 1 1 0 0 0 0 0 0 1 1 3 3 3 3 3 3 4 5 5 4 3 3 3 3 2 3 3 3 3
35 36 37 36 33 29 25 23 21 21 20 16 11 6 2 1 0 0 0 0 0 1 2 3 3 3 3 3 3 3 4 5 6 5 4 3 3 3 3 3 3 3 3
37 35 35 34 32 30 27 25 23 22 21 19 15 9 5 2 2 1 1 1 1 2 3 3 3 3 3 3 3 3 3 4 4 5 4 3 3 3 3 3 3 3 3
39 36 34 33 32 30 28 26 25 23 21 19 16 11 5 4 4 4 3 3 3 3 3 3 3 3 3 3 3 4 3 3 3 4 3 3 3 3 3 3 3 3 2
38 36 34 34 32 28 26 25 25 24 21 19 17 11 6 5 5 6 7 6 5 6 6 5 3 3 3 3 4 4 4 3 3 3 3 3 3 3 3 3 3 1 1
34 32 33 34 30 25 24 26 27 24 22 20 18 15 11 8 8 9 10 9 9 9 9 7 4 3 3 3 3 3 3 2 2 2 2 2 2 2 2 2 2 1 0
29 28 29 30 29 25 25 27 27 23 21 19 18 16 14 12 11 11 11 11 11 11 9 6 3 1 2 2 2 1 1 1 1 1 1 0 1 1 1 1 1 0 0
26 26 27 28 28 27 26 25 23 20 17 16 15 14 13 13 11 10 11 11 11 9 6 3 1 0 1 2 2 1 0 0 0 0 0 0 0 0 0 1 1 0 0
24 25 27 29 30 29 26 22 19 17 15 14 13 11 11 11 10 9 10 11 10 7 4 2 1 0 0 1 2 2 1 0 0 0 0 0 0 0 0 1 1 0 0

GEFSGL_con_probscp_234.txt.gz
Probability
12 12 12 10 7 5 4 4 5 5 4 4 5 4 3 3 3 3 2 2 1 0 0 0 0 0 0 0 0 0 0 0 0 0 0 0 0 0 0 0 0 0 0
15 15 14 11 8 5 4 4 4 5 5 5 4 4 3 3 3 2 1 1 0 0 0 0 0 0 0 0 0 0 0 0 0 0 0 0 0 0 0 0 0 0 0
20 19 16 13 9 6 4 5 6 6 6 5 5 5 5 4 3 2 1 1 1 1 1 0 0 0 0 0 0 0 0 0 0 0 0 0 0 0 0 0 0 0 0
24 22 19 16 12 9 7 8 8 8 7 6 6 7 6 4 3 3 2 2 2 2 2 1 1 1 0 0 0 0 0 0 0 0 0 0 0 0 0 0 0 0 0
28 26 23 20 16 13 12 12 11 11 10 8 7 7 6 5 3 3 3 3 3 3 3 3 2 2 1 0 0 0 1 1 1 1 1 1 1 1 1 1 1 1 1
32 29 26 23 20 17 16 15 14 13 12 10 8 7 6 5 4 3 3 3 4 4 3 3 3 3 2 2 1 1 1 2 2 2 2 2 2 2 2 2 2 2 2
33 30 27 25 23 20 17 15 14 12 12 10 9 8 6 5 3 3 3 4 5 5 4 4 4 4 4 4 3 1 1 2 3 3 3 3 3 3 3 3 3 3 3
35 32 29 29 29 25 18 14 11 11 9 8 8 8 7 4 3 2 3 4 6 6 6 6 6 6 6 5 4 3 2 3 3 3 3 3 3 3 3 3 3 3 3
38 34 32 33 34 30 22 15 12 11 8 6 6 7 6 4 2 1 2 3 6 6 6 6 6 6 6 4 3 3 3 3 3 3 3 3 3 2 3 3 3 3 3
39 38 37 37 37 33 26 19 16 13 9 6 7 7 7 5 3 1 1 3 5 6 6 6 6 6 5 3 3 3 3 3 3 3 3 3 2 2 2 3 3 3 3
38 39 39 39 37 33 29 24 19 15 12 10 9 8 8 6 4 2 1 2 4 5 6 6 6 6 4 2 1 2 2 2 3 3 3 3 3 2 3 3 3 3 3
37 36 35 36 36 34 31 28 22 18 15 13 12 9 8 7 5 2 1 1 2 4 5 6 6 6 4 2 1 1 1 1 2 3 3 3 3 3 2 3 3 3 3
36 34 30 30 32 33 32 30 25 20 17 16 13 10 8 6 5 2 1 1 1 2 4 6 6 5 3 2 2 1 0 1 2 3 3 3 2 1 1 1 2 2 2
35 32 28 26 28 31 31 29 26 21 18 17 15 12 9 7 5 2 1 1 1 2 3 5 4 3 1 1 1 1 0 1 2 2 2 1 1 0 0 0 1 1 1
31 29 26 24 25 27 26 24 21 16 14 14 14 11 9 7 5 2 1 0 1 2 3 4 3 2 1 0 0 0 0 0 1 1 1 0 0 0 0 0 0 0 0
27 25 23 22 22 22 22 19 14 10 8 7 7 7 6 4 3 1 0 0 1 2 2 2 2 2 1 0 0 0 0 0 0 0 0 0 0 0 0 0 0 0 1
25 24 23 21 21 21 20 17 12 9 5 2 1 2 1 1 1 0 0 0 0 1 1 1 1 1 1 0 0 0 0 0 0 0 0 0 0 0 0 0 0 1 2
24 23 22 21 22 23 20 16 13 11 7 3 1 0 0 0 0 0 0 0 0 0 0 0 0 0 0 0 0 0 0 0 0 0 0 0 0 0 0 0 0 1 2
21 20 19 19 22 24 20 14 12 12 9 5 3 1 0 0 0 0 0 0 0 0 0 0 0 0 0 0 0 0 0 0 0 0 0 0 0 0 0 0 0 1 1
17 16 13 14 20 22 19 14 12 11 9 7 4 2 1 0 0 0 0 0 0 0 0 0 0 0 0 0 0 0 0 0 0 0 0 0 0 0 0 0 0 0 0
15 13 11 12 16 18 16 14 12 11 9 7 5 3 1 0 0 0 0 0 0 0 0 0 0 0 0 0 0 0 0 0 0 0 0 0 0 0 0 0 0 0 0
13 12 12 13 15 14 13 13 13 12 11 10 7 4 1 0 1 1 1 0 0 0 0 0 0 0 0 0 0 0 0 0 0 0 0 0 0 0 0 0 0 0 0
13 13 13 15 16 15 14 13 12 13 14 13 10 6 3 2 2 2 2 1 0 0 0 0 0 0 0 0 0 0 0 0 0 0 0 0 0 0 0 0 0 0 0
14 14 14 14 15 16 15 12 11 12 13 13 12 9 6 4 3 3 3 3 2 1 0 0 0 0 0 0 0 0 0 0 0 0 0 0 0 0 0 0 0 0 0
13 13 12 12 13 14 13 10 9 9 11 12 12 10 7 5 4 3 4 5 4 2 1 0 0 0 0 0 0 0 0 0 0 0 0 0 0 0 0 0 0 0 0
12 11 10 10 11 12 10 7 7 9 10 11 12 11 7 6 4 3 4 5 5 3 2 1 0 0 0 0 0 0 0 0 0 0 0 0 0 0 0 0 0 0 0

GEFSGL_con_probscp_240.txt.gz
Probability
6 7 7 5 4 3 3 2 2 1 0 1 1 2 3 3 3 2 1 0 0 0 0 0 0 0 0 0 0 0 0 0 0 0 0 0 0 0 0 0 0 0 0
6 7 7 5 3 3 2 2 1 1 1 2 3 3 4 4 3 1 0 0 0 0 0 0 0 0 0 0 0 0 0 0 0 0 0 0 0 0 0 0 0 0 0
6 7 7 5 4 2 2 2 3 3 3 4 6 6 5 5 3 1 1 1 1 1 1 1 1 1 0 0 0 0 0 0 0 0 0 0 0 0 0 0 0 0 0
9 9 9 7 5 2 2 4 5 5 4 5 6 6 6 5 4 3 3 2 2 2 2 2 2 2 1 1 1 0 0 0 0 0 0 0 0 0 0 0 0 0 0
14 13 11 10 7 4 4 5 6 6 6 5 5 5 6 6 5 5 4 3 3 3 3 3 3 3 2 2 1 0 0 0 0 0 0 0 1 1 1 1 1 1 1
19 16 14 12 9 7 7 7 7 7 7 7 6 6 6 6 5 4 3 3 4 3 3 3 3 3 3 2 1 0 0 0 1 1 1 1 2 2 2 2 2 2 2
20 19 17 15 13 11 9 9 7 6 6 6 5 5 4 4 4 3 3 4 4 4 4 4 4 4 4 3 3 1 1 1 2 3 3 3 3 3 3 3 3 3 3
23 21 19 18 17 15 13 11 7 5 4 2 2 3 3 2 2 2 2 3 3 4 5 6 6 6 6 6 5 4 3 3 2 3 4 4 3 3 3 3 3 3 3
26 24 22 22 22 19 18 15 10 7 4 1 0 1 1 1 1 0 1 1 1 3 5 6 6 6 6 6 6 6 6 5 3 2 2 2 1 1 2 3 3 3 3
28 27 26 26 25 23 21 18 14 11 8 3 1 1 1 1 1 0 0 0 0 1 3 4 4 5 5 4 5 6 6 6 5 3 2 2 1 1 2 3 3 3 3
29 27 26 26 26 25 23 21 17 14 11 7 4 3 3 2 1 0 0 1 1 1 3 3 3 3 2 1 2 4 5 5 5 4 3 3 3 2 3 3 3 3 3
29 27 25 26 26 25 23 22 19 14 11 10 9 8 7 5 3 1 0 1 2 2 3 3 2 1 0 0 0 1 2 2 3 3 3 3 3 3 3 3 3 3 3
28 27 27 28 28 25 22 22 18 13 12 11 12 11 10 9 6 4 2 1 1 3 3 3 2 0 0 0 0 0 0 1 2 3 3 3 3 2 2 2 2 2 2
27 25 25 27 26 23 21 21 19 15 13 13 12 12 11 10 9 7 4 2 1 2 2 2 1 0 0 0 0 0 0 0 1 2 2 2 1 1 1 1 1 1 1
24 23 21 20 20 18 18 18 16 13 11 10 9 9 9 8 8 6 4 3 1 1 1 1 1 0 0 0 0 1 1 0 0 1 1 1 0 0 0 0 0 0 0
21 20 19 17 16 16 16 15 11 7 5 5 4 4 5 4 3 2 2 2 1 0 0 0 0 0 0 0 1 2 2 1 0 0 0 0 0 0 0 0 0 0 0
17 17 17 16 15 15 15 15 11 5 2 1 1 1 1 1 1 0 0 0 0 0 0 0 0 0 0 0 1 2 3 2 1 0 0 0 0 0 0 0 0 0 0
15 15 16 16 14 14 14 14 12 9 4 2 0 0 0 0 0 0 0 0 0 0 0 0 0 0 0 0 1 2 3 3 2 1 0 0 0 0 0 0 0 0 0
11 13 14 14 14 13 12 11 10 8 5 2 1 1 1 0 0 0 0 0 0 0 1 1 0 0 0 0 0 1 2 3 3 2 1 0 0 0 0 0 0 0 0
8 9 11 11 11 11 11 9 8 6 4 3 3 4 3 2 1 1 0 0 0 1 2 2 1 0 0 0 0 0 1 1 2 2 1 0 0 0 0 0 0 0 0
8 8 8 9 9 8 8 8 8 7 6 6 7 6 4 3 3 2 1 0 0 1 2 3 2 1 0 0 0 0 0 0 1 1 0 0 0 0 0 0 0 0 0
10 10 9 8 7 5 5 7 8 8 7 7 8 7 4 3 3 3 3 1 0 0 1 2 2 1 0 0 0 0 0 0 0 0 0 0 0 0 0 0 0 0 0
12 12 11 10 8 6 5 6 7 8 8 8 8 7 5 5 4 4 5 3 2 1 0 1 1 0 0 0 0 0 0 0 0 0 0 0 0 0 0 0 0 0 0
11 12 12 11 8 6 5 5 5 6 8 9 8 7 6 6 6 6 7 6 4 2 1 0 0 0 0 0 1 1 0 0 0 0 0 0 0 0 0 0 0 0 0
9 10 11 10 7 5 3 3 3 6 8 9 8 6 6 6 6 7 8 7 5 3 1 0 0 1 1 1 1 1 0 0 0 0 0 0 0 0 0 0 0 0 0
7 8 8 8 6 4 2 1 2 5 7 7 6 5 4 4 5 7 8 7 5 2 0 0 1 2 2 2 1 1 0 0 0 0 0 0 0 0 0 0 0 0 0

GEFSGL_con_probscp_246.txt.gz
Probability
11 11 10 8 9 10 10 9 7 5 4 3 4 6 7 7 9 10 10 10 8 6 5 5 4 4 3 1 1 1 2 3 3 3 2 2 3 3 2 1 1 2 3
12 12 11 10 10 12 13 12 10 7 5 5 7 9 8 8 9 9 10 10 9 7 7 7 6 6 5 3 2 2 3 3 3 3 3 3 3 3 3 2 2 2 2
14 13 14 14 15 16 17 16 13 10 8 8 11 12 11 10 10 11 10 10 9 9 9 9 9 8 7 4 3 3 3 3 3 4 3 3 3 3 4 3 3 3 2
17 16 17 18 20 20 19 17 15 13 11 13 16 17 16 14 13 13 11 9 8 9 9 9 9 8 7 6 4 4 3 3 4 4 4 3 3 4 4 4 3 3 3
21 22 23 23 24 24 22 20 19 18 17 19 22 21 19 15 13 13 11 8 7 8 8 8 8 8 7 6 5 4 4 4 4 4 3 3 3 4 4 4 4 4 4
28 29 30 30 30 30 28 26 26 27 27 28 27 25 21 16 11 9 8 7 7 7 7 8 8 7 7 5 5 4 3 3 4 3 3 3 3 4 5 5 5 6 6
36 36 38 37 35 34 33 33 33 35 36 35 32 27 23 17 9 5 4 6 8 8 8 8 8 7 7 6 5 4 3 3 3 3 3 3 4 5 6 6 6 6 6
39 40 42 41 39 38 38 39 39 40 39 37 34 28 23 16 7 2 2 6 9 10 9 9 9 7 7 7 6 5 4 4 3 3 3 4 5 6 6 6 6 6 6
38 41 44 43 42 43 43 43 42 39 36 33 30 26 21 14 6 1 2 7 11 12 11 9 9 8 6 5 6 6 5 5 4 4 4 4 4 5 6 6 6 6 6
40 43 46 46 45 45 46 46 43 39 34 30 28 25 21 16 8 2 3 9 13 13 11 9 8 6 4 3 4 5 5 4 5 5 5 5 5 5 5 6 6 6 6
44 47 48 48 47 46 46 46 43 40 36 32 30 27 23 18 12 4 3 8 12 12 11 10 8 4 2 1 3 4 4 4 4 5 5 5 6 6 6 6 7 7 7
45 46 47 46 46 45 45 45 43 40 37 35 34 30 25 21 15 7 2 4 9 11 12 11 8 3 1 0 1 2 3 3 3 4 4 4 5 5 6 7 8 8 8
42 42 41 41 41 42 44 44 43 40 38 36 36 32 28 24 17 10 4 3 5 7 9 9 6 1 0 0 0 1 2 2 2 3 4 4 4 3 4 5 7 8 7
38 37 35 34 36 39 40 39 39 38 36 35 35 33 29 24 19 12 7 5 5 5 6 7 5 2 1 1 1 1 1 1 1 2 3 4 3 1 2 4 5 5 4
31 30 29 28 31 35 34 30 28 27 26 26 27 27 25 21 15 11 8 7 6 5 6 7 7 6 4 4 4 3 2 1 1 1 1 2 2 1 2 3 3 2 2
24 24 23 24 27 30 28 23 19 15 12 12 14 16 16 12 8 6 4 3 4 4 5 8 10 9 7 6 5 3 2 3 3 2 1 1 2 2 3 4 3 1 1
21 20 20 21 22 24 24 21 18 12 7 4 4 6 6 4 2 1 1 0 1 1 4 7 9 9 8 7 6 3 2 3 4 4 3 3 3 3 4 4 2 1 0
20 19 18 18 18 19 21 21 19 15 12 8 4 2 1 0 0 0 0 1 1 2 4 7 10 11 11 10 8 7 5 4 5 5 5 6 5 4 3 3 1 0 0
19 19 18 17 16 16 18 19 18 17 15 13 9 5 3 2 2 2 1 2 4 6 7 9 10 12 13 13 13 12 9 7 6 6 6 6 5 4 3 3 2 1 0
19 18 17 17 16 15 15 15 16 15 15 15 13 10 7 7 9 8 5 6 7 9 10 10 11 13 15 16 16 15 12 10 9 7 6 5 4 3 3 3 2 1 1
20 18 16 16 17 17 15 15 15 16 16 16 15 12 10 12 15 15 12 10 9 10 11 10 11 14 16 17 17 16 15 12 10 8 6 4 3 3 3 2 1 1 0
18 18 17 16 18 18 18 18 17 17 17 17 15 12 11 13 16 17 15 13 11 11 10 9 10 12 13 15 15 16 16 14 11 8 5 3 3 3 3 2 0 0 0
16 16 16 17 18 18 19 19 19 18 17 17 15 12 10 11 13 14 14 13 12 10 9 9 9 9 9 11 13 14 14 13 10 5 3 2 2 2 2 1 0 0 0
14 13 13 14 16 17 17 18 18 17 16 15 14 12 10 9 9 11 12 12 11 9 8 8 8 8 8 8 9 10 10 9 6 3 1 1 1 1 1 1 0 0 0
12 11 10 11 13 15 17 16 15 14 13 12 11 11 11 10 10 10 10 10 9 7 6 6 6 7 7 6 6 6 4 3 2 1 0 0 0 0 0 0 0 0 0
10 10 9 10 12 14 15 13 11 10 10 10 11 12 12 12 12 11 9 8 7 6 5 4 5 6 6 5 3 2 1 0 0 0 0 0 0 0 0 0 0 0 0